TimeBST,TemperatureF,Dew PointF,Humidity,Sea Level PressureIn,VisibilityMPH,Wind Direction,Wind SpeedMPH,Gust SpeedMPH,PrecipitationIn,Events,Conditions,WindDirDegrees,DateUTC
12:50 AM,57,52,76,29.83,18,SSE,11.5,,,,Mostly Cloudy,160,2013-06-14 23:50:00
3:50 AM,54,50,81,29.76,18,South,11.5,,,,Partly Cloudy,190,2013-06-15 02:50:00
5:20 AM,53.6,51.8,94,29.74,3.7,SSW,17.3,-,N/A,Rain,Light Rain,210,2013-06-15 04:20:00
5:50 AM,53.6,51.8,94,29.74,6.2,SW,13.8,-,N/A,,Scattered Clouds,220,2013-06-15 04:50:00
6:20 AM,53.6,50.0,88,29.74,6.2,SW,13.8,-,N/A,,Scattered Clouds,230,2013-06-15 05:20:00
6:50 AM,54,50,83,29.76,19,WSW,18.4,,,Rain,Rain,240,2013-06-15 05:50:00
6:50 AM,53.6,50.0,88,29.74,6.2,SW,15.0,-,N/A,,Partly Cloudy,230,2013-06-15 05:50:00
7:20 AM,55.4,48.2,77,29.77,6.2,WSW,16.1,-,N/A,,Partly Cloudy,240,2013-06-15 06:20:00
7:50 AM,55.4,48.2,77,29.77,6.2,WSW,16.1,-,N/A,,Partly Cloudy,240,2013-06-15 06:50:00
8:20 AM,57.2,48.2,72,29.77,6.2,WSW,18.4,-,N/A,,Partly Cloudy,240,2013-06-15 07:20:00
8:50 AM,59.0,48.2,67,29.77,6.2,WSW,18.4,-,N/A,,Partly Cloudy,240,2013-06-15 07:50:00
9:20 AM,59.0,44.6,59,29.77,6.2,WSW,20.7,-,N/A,,Scattered Clouds,240,2013-06-15 08:20:00
9:50 AM,61,46,47,29.80,13,SW,23.0,,,,Scattered Clouds,230,2013-06-15 08:50:00
9:50 AM,60.8,44.6,55,29.77,6.2,SW,20.7,35.7,N/A,,Scattered Clouds,230,2013-06-15 08:50:00
10:20 AM,59.0,44.6,59,29.77,6.2,SW,20.7,-,N/A,,Scattered Clouds,230,2013-06-15 09:20:00
10:50 AM,60.8,44.6,55,29.80,6.2,SW,19.6,-,N/A,,Scattered Clouds,230,2013-06-15 09:50:00
11:20 AM,59.0,44.6,59,29.80,6.2,SW,21.9,33.4,N/A,,Scattered Clouds,230,2013-06-15 10:20:00
11:50 AM,62.6,44.6,52,29.80,6.2,SW,20.7,33.4,N/A,,Scattered Clouds,230,2013-06-15 10:50:00
12:20 PM,62.6,46.4,55,29.80,6.2,SW,23.0,-,N/A,,Scattered Clouds,230,2013-06-15 11:20:00
12:50 PM,62,46,45,29.83,11,SW,25.3,,,,Scattered Clouds,230,2013-06-15 11:50:00
12:50 PM,64.4,46.4,52,29.80,6.2,SW,24.2,-,N/A,,Scattered Clouds,230,2013-06-15 11:50:00
1:20 PM,62.6,46.4,55,29.80,6.2,SW,24.2,-,N/A,,Scattered Clouds,220,2013-06-15 12:20:00
1:50 PM,62.6,46.4,55,29.80,6.2,SSW,26.5,-,N/A,,Scattered Clouds,210,2013-06-15 12:50:00
2:20 PM,62.6,46.4,55,29.83,6.2,SW,24.2,-,N/A,,Scattered Clouds,230,2013-06-15 13:20:00
2:50 PM,62.6,46.4,55,29.83,6.2,SW,23.0,-,N/A,,Scattered Clouds,220,2013-06-15 13:50:00
3:20 PM,60.8,46.4,59,29.83,6.2,SW,26.5,-,N/A,,Scattered Clouds,220,2013-06-15 14:20:00
3:50 PM,60,46,48,29.83,17,SW,26.5,,,,Partly Cloudy,220,2013-06-15 14:50:00
3:50 PM,60.8,46.4,59,29.80,6.2,SW,25.3,-,N/A,,Scattered Clouds,220,2013-06-15 14:50:00
4:20 PM,62.6,46.4,55,29.80,6.2,SW,28.8,-,N/A,,Scattered Clouds,220,2013-06-15 15:20:00
4:50 PM,60.8,46.4,59,29.83,6.2,SW,28.8,41.4,N/A,,Mostly Cloudy,220,2013-06-15 15:50:00
5:50 PM,60.8,48.2,63,29.80,6.2,SW,28.8,-,N/A,,Partly Cloudy,220,2013-06-15 16:50:00
6:20 PM,60.8,46.4,59,29.83,6.2,SW,27.6,39.1,N/A,,Partly Cloudy,230,2013-06-15 17:20:00
6:50 PM,59.0,46.4,63,29.83,6.2,SW,21.9,-,N/A,,Partly Cloudy,230,2013-06-15 17:50:00
7:20 PM,59.0,46.4,63,29.83,6.2,SW,20.7,-,N/A,,Partly Cloudy,230,2013-06-15 18:20:00
7:50 PM,57.2,48.2,72,29.83,6.2,SW,19.6,-,N/A,,Partly Cloudy,230,2013-06-15 18:50:00
8:20 PM,57.2,48.2,72,29.86,6.2,SW,16.1,-,N/A,,Partly Cloudy,220,2013-06-15 19:20:00
8:50 PM,55.4,48.2,77,29.86,6.2,SW,16.1,-,N/A,,Partly Cloudy,220,2013-06-15 19:50:00
9:20 PM,53.6,48.2,82,29.86,-9999.0,SW,12.7,-,N/A,,Clear,220,2013-06-15 20:20:00
9:50 PM,53,49,80,29.89,8,SW,12.7,,,,,220,2013-06-15 20:50:00
9:50 PM,53.6,48.2,82,29.89,-9999.0,SSW,12.7,-,N/A,,Clear,210,2013-06-15 20:50:00
10:20 PM,53.6,48.2,82,29.89,-9999.0,SW,12.7,-,N/A,,Clear,220,2013-06-15 21:20:00